sat.trackr.live / text

‹ back to catalog

STARLINK-3718

NORAD 52132 · 2022-029AW

PAYLOAD ACTIVE UNKNOWN

§ Identity

Operator
Country
US
Launch date
2022-03-19
Launch site
AFETR
Launch vehicle
Mass (kg)
RCS (m²)

Purposes: comms

External: N2YO · Heavens-Above · Gunter

§ Orbital elements

Epoch: 2026-09-20T00:38:45.298752Z

Period
93.85 min
Inclination
53.1604°
Eccentricity
0.0001183
Mean motion
15.34390712 rev/d
Perigee alt
461.9 km
Apogee alt
463.5 km
Semi-major
6,840.9 km
B*
1.1289e-5
RAAN
269.7020°
Arg perigee
87.1914°
Mean anomaly
272.9224°
Rev number
25,036

§ Raw data

STARLINK-37181 52132U 22029AW  26263.02691318  .00000005  00000+0  11289-4 0  99962 52132  53.1604 269.7020 0001183  87.1914 272.9224 15.34390712250362

JSON: /api/v1/satellites/52132 · /tle

For live sub-satellite position, see the globe view (requires WebGL).

§ Visibility from observer

Set your observer location to see the next 7 days of passes ≥ 10°. The values pass through the URL so the page stays shareable.

No JS? Fill the form by hand. The geolocation button needs JavaScript.